星链-31198 (STARLINK-31198 )

导读

STARLINK-31198是美国太空探索技术公司SpaceX星链星座的卫星,于2024年1月29日发射入轨,属于星链低轨互联网星座组网卫星,承担全球宽带互联网接入服务的部署任务。星链项目依托大量低轨卫星,可为全球偏远地区、海上和空中提供覆盖广泛的高速网络连接服务。

基本信息
目录编号:
58867
目录名称:
STARLINK-31198
国际标识:
2024-019Q
轨道中心:
EARTH
卫星名称:
星链-31198
卫星全名:
星链-31198 (STARLINK-31198 )
卫星状态:
在轨 (已飞行871 天)
发射日期:
2024-01-29 UTC
国别 :
美国 (US)
星等 :
--
轨道信息
数据来源 国际轨道数据
星历时间: 2026-06-18T06:06:22+0800
8小时前
查看轨道信息
半长轴: 6861.193km
偏心率: 0.0001446
轨道倾角: 43.004°
近地点辐角 254.076°
升交点赤经 42.667°
平近点角 105.994°
近地点: 482.063km
远地点: 484.049km
周期: 94.267分钟
每日圈数: 15.275779
详细信息
固有亮度:
5
最大亮度:
0.3
卫星平台:
Starlink v2.0 mini
覆盖范围:
全球
运营商:
太空探索技术公司
运营商所在国:
美国
制造商(研发单位):
太空探索技术公司
制造商所在国:
美国
使用方式:
暂无
卫星简介
星链(Starlink)计划是由太空探索技术公司(SpaceX)提出的一个巨型低轨卫星互联网星座项目,计划在2019年至2024年间在太空搭建由约1.2万颗卫星组成的“星链”网络,其中1584颗将部署在地球上空550千米处的近地轨道,并从2020年开始工作。该卫星仍在工作。
2D轨道图
3D轨道图
轨道高度分析图
轨道倾角分析图
轨道综合分析图
查看轨道综合分析图